Location: Mountain Grove
(34.0887°N, 86.6172°W)
Time: 21:58:58
(UTC+00:00)

COSMOS 2487 - Pass Details

Date: 14 July 2020
Orbit: 441 x 442 km, 74.7° (Epoch: 08 August)

Event Time Altitude Azimuth Distance (km) Brightness Sun altitude
Exits shadow 09:35:35 - 171° (S) 1,978 5.4 -13.1°
Reaches altitude 10° 09:36:41 10° 164° (SSE) 1,553 4.9 -12.9°
Maximum altitude 09:39:44 30° 101° (ESE) 812 4.1 -12.4°
Drops below altitude 10° 09:42:47 10° 38° (NE) 1,562 6.5 -11.9°
Sets 09:45:00 0° 28° (NNE) 2,436 7.4 -11.6°
